Date String (YYYY-MM-DD hh:mm:ss) UTC,Instrument flags,absolute air pressure of the measurement (hPa),sample flow rate (lpm),inlet stack bypass flow (lpm),air temperature of the measurement (°C),ambient temperature measured by the external sensor (°C),aerosol sample conditioner tube jacket temperature (°C),OPC LED temperature (°C),internal box temperature (°C),relative humidity of the measurement (%),span deviation,mass concentration of particles derived from Lorenz-Mie calculation of OPC scattering (μg/m³),mass concentration of particles derived from Lorenz-Mie calculation of OPC scattering (μg/m³),mass concentration of particles derived from Lorenz-Mie calculation of OPC scattering (μg/m³)
DateTimeUTC,F1_M11,P_M11,Q1_M11,Q2_M11,T1_M11,T2_M11,T3_M11,T4_M11,T5_M11,U1_M11,ZSPAN_M11,X0_M11,X2_M11,X1_M11
2024-04-19 05:00:00,SystemResetWarning,0834.2,5.00,000.00,019.5,018.8,000.0,028.0,021.2,023.7,0000.0,0011.52,0006.99,0005.97
2024-04-19 05:01:00,SystemResetWarning,0834.6,5.02,000.00,019.5,018.8,000.0,028.0,021.3,023.8,0000.0,0011.51,0006.98,0005.97
2024-04-19 05:02:00,SystemResetWarning,0834.2,5.00,000.00,019.5,018.8,000.0,028.0,021.2,023.8,0000.0,0011.76,0006.96,0005.98
2024-04-19 05:03:00,SystemResetWarning,0834.3,4.99,000.00,019.5,018.8,000.0,028.0,021.2,023.7,0000.0,0011.39,0006.93,0005.98
2024-04-19 05:04:00,SystemResetWarning,0834.4,4.99,000.00,019.5,018.8,000.0,028.0,021.2,023.5,0000.0,0010.97,0006.91,0005.99
2024-04-19 05:05:00,SystemResetWarning,0834.7,5.00,000.00,019.5,018.8,000.0,028.0,021.2,023.5,0000.0,0011.33,0006.91,0006.00
2024-04-19 05:06:00,SystemResetWarning,0834.2,5.00,000.00,019.5,018.8,000.0,028.0,021.2,023.6,0000.0,0011.21,0006.85,0006.00
2024-04-19 05:07:00,SystemResetWarning,0834.2,5.00,000.00,019.5,018.8,000.0,028.0,021.2,023.7,0000.0,0011.09,0006.80,0005.99
2024-04-19 05:08:00,SystemResetWarning,0834.2,5.01,000.00,019.5,018.8,000.0,028.0,021.2,023.7,0000.0,0010.87,0006.75,0005.99
2024-04-19 05:09:00,SystemResetWarning,0834.2,4.99,000.00,019.5,018.8,000.0,028.0,021.2,023.7,0000.0,0010.94,0006.69,0005.98
2024-04-19 05:10:00,SystemResetWarning,0834.2,4.99,000.00,019.5,018.8,000.0,028.0,021.2,023.7,0000.0,0010.75,0006.63,0005.97
2024-04-19 05:11:00,SystemResetWarning,0834.5,5.00,000.00,019.5,018.8,000.0,028.0,021.2,023.7,0000.0,0010.79,0006.63,0005.97
2024-04-19 05:12:00,SystemResetWarning,0834.3,5.01,000.00,019.5,018.8,000.0,028.0,021.2,023.8,0000.0,0010.89,0006.64,0005.97
2024-04-19 05:13:00,SystemResetWarning,0834.2,5.01,000.00,019.5,018.9,000.0,028.0,021.2,023.8,0000.0,0011.02,0006.65,0005.97
2024-04-19 05:14:00,SystemResetWarning,0834.1,5.01,000.00,019.5,018.8,000.0,028.0,021.2,023.9,0000.0,0011.05,0006.66,0005.97
2024-04-19 05:15:00,SystemResetWarning,0834.1,5.01,000.00,019.5,018.8,000.0,028.0,021.2,023.9,0000.0,0011.04,0006.66,0005.95
2024-04-19 05:16:00,SystemResetWarning,0834.1,5.00,000.00,019.5,018.8,000.0,028.0,021.2,023.8,0000.0,0011.08,0006.64,0005.93
2024-04-19 05:17:00,SystemResetWarning,0834.1,4.99,000.00,019.5,018.9,000.0,028.0,021.2,023.8,0000.0,0011.03,0006.63,0005.92
2024-04-19 05:18:00,SystemResetWarning,0834.1,4.99,000.00,019.5,018.8,000.0,028.0,021.2,023.8,0000.0,0010.95,0006.61,0005.91
2024-04-19 05:19:00,SystemResetWarning,0834.1,5.00,000.00,019.5,018.8,000.0,028.0,021.2,023.8,0000.0,0010.86,0006.58,0005.89
2024-04-19 05:20:00,SystemResetWarning,0834.1,5.00,000.00,019.5,018.8,000.0,028.0,021.2,023.8,0000.0,0010.46,0006.55,0005.88
2024-04-19 05:21:00,SystemResetWarning,0834.1,5.01,000.00,019.4,018.8,000.0,028.0,021.2,023.8,0000.0,0010.40,0006.56,0005.88
2024-04-19 05:22:00,SystemResetWarning,0834.1,5.01,000.00,019.4,018.8,000.0,028.0,021.2,023.9,0000.0,0010.29,0006.52,0005.88
2024-04-19 05:23:00,SystemResetWarning,0834.1,5.00,000.00,019.4,018.8,000.0,028.0,021.2,023.9,0000.0,0010.75,0006.49,0005.87
2024-04-19 05:24:00,SystemResetWarning,0834.1,4.99,000.00,019.4,018.8,000.0,028.0,021.2,023.9,0000.0,0010.35,0006.46,0005.86
2024-04-19 05:25:00,SystemResetWarning,0834.1,5.00,000.00,019.4,018.8,000.0,028.0,021.2,023.9,0000.0,0010.19,0006.41,0005.86
2024-04-19 05:26:00,SystemResetWarning,0834.1,4.99,000.00,019.4,018.8,000.0,028.0,021.2,024.5,0000.0,0010.10,0006.36,0005.85
2024-04-19 05:27:00,SystemResetWarning,0834.0,5.00,000.00,019.4,018.8,000.0,028.0,021.2,024.9,0000.0,0009.62,0006.34,0005.86
2024-04-19 05:28:00,SystemResetWarning,0834.1,5.01,000.00,019.4,018.8,000.0,028.0,021.2,024.3,0000.0,0009.60,0006.34,0005.86
2024-04-19 05:29:00,SystemResetWarning,0834.1,5.01,000.00,019.4,018.8,000.0,028.0,021.2,024.1,0000.0,0009.57,0006.34,0005.87
2024-04-19 05:30:00,SystemResetWarning,0834.0,4.99,000.00,019.4,018.8,000.0,028.0,021.2,024.2,0000.0,0009.58,0006.35,0005.87
2024-04-19 05:31:00,SystemResetWarning,0834.0,4.99,000.00,019.4,018.8,000.0,028.0,021.2,024.2,0000.0,0009.62,0006.36,0005.87
2024-04-19 05:32:00,SystemResetWarning,0834.0,5.00,000.00,019.4,018.8,000.0,028.0,021.2,024.3,0000.0,0009.80,0006.36,0005.87
2024-04-19 05:33:00,SystemResetWarning,0834.0,5.01,000.00,019.4,018.8,000.0,028.0,021.2,024.2,0000.0,0010.19,0006.37,0005.88
2024-04-19 05:34:00,SystemResetWarning,0833.9,5.01,000.00,019.4,018.8,000.0,028.0,021.2,024.2,0000.0,0009.58,0006.38,0005.88
2024-04-19 05:35:00,SystemResetWarning,0833.9,4.99,000.00,019.4,018.8,000.0,028.0,021.2,024.2,0000.0,0009.48,0006.38,0005.86
2024-04-19 05:36:00,SystemResetWarning,0833.9,4.99,000.00,019.4,018.8,000.0,028.0,021.2,024.2,0000.0,0009.53,0006.41,0005.88
2024-04-19 05:37:00,SystemResetWarning,0834.0,4.99,000.00,019.4,018.8,000.0,028.0,021.2,024.2,0000.0,0009.54,0006.45,0005.88
2024-04-19 05:38:00,SystemResetWarning,0834.0,5.00,000.00,019.4,018.8,000.0,028.0,021.2,024.1,0000.0,0009.67,0006.47,0005.88
2024-04-19 05:39:00,SystemResetWarning,0834.0,5.02,000.00,019.4,018.8,000.0,028.0,021.2,024.1,0000.0,0009.77,0006.52,0005.88
2024-04-19 05:40:00,SystemResetWarning,0833.9,4.99,000.00,019.4,018.8,000.0,028.0,021.2,024.1,0000.0,0009.80,0006.53,0005.88
2024-04-19 05:41:00,SystemResetWarning,0833.9,4.99,000.00,019.4,018.8,000.0,028.0,021.2,024.1,0000.0,0010.23,0006.55,0005.90
2024-04-19 05:42:00,SystemResetWarning,0833.9,4.99,000.00,019.4,018.8,000.0,028.0,021.2,024.1,0000.0,0011.29,0006.59,0005.91
2024-04-19 05:43:00,SystemResetWarning,0833.9,5.00,000.00,019.4,018.8,000.0,028.0,021.2,024.2,0000.0,0011.43,0006.61,0005.90
2024-04-19 05:44:00,SystemResetWarning,0833.9,5.01,000.00,019.4,018.8,000.0,028.0,021.2,024.2,0000.0,0011.13,0006.62,0005.89
2024-04-19 05:45:00,SystemResetWarning,0833.9,5.01,000.00,019.4,018.8,000.0,028.0,021.2,024.2,0000.0,0011.46,0006.62,0005.89
2024-04-19 05:46:00,SystemResetWarning,0833.9,5.00,000.00,019.4,018.8,000.0,028.0,021.2,024.2,0000.0,0011.90,0006.65,0005.89
2024-04-19 05:47:00,SystemResetWarning,0833.9,4.98,000.00,019.4,018.8,000.0,028.0,021.2,024.2,0000.0,0011.88,0006.64,0005.89
2024-04-19 05:48:00,SystemResetWarning,0833.9,5.00,000.00,019.4,018.8,000.0,028.0,021.2,024.2,0000.0,0011.92,0006.65,0005.89
2024-04-19 05:49:00,SystemResetWarning,0833.8,5.01,000.00,019.4,018.8,000.0,028.0,021.2,024.1,0000.0,0011.82,0006.63,0005.90
2024-04-19 05:50:00,SystemResetWarning,0833.8,5.01,000.00,019.4,018.8,000.0,028.0,021.2,024.1,0000.0,0011.70,0006.58,0005.91
2024-04-19 05:51:00,SystemResetWarning,0833.8,5.01,000.00,019.4,018.8,000.0,028.0,021.2,024.2,0000.0,0011.59,0006.53,0005.89
2024-04-19 05:52:00,SystemResetWarning,0833.8,5.00,000.00,019.4,018.8,000.0,028.0,021.2,024.2,0000.0,0011.55,0006.56,0005.90
2024-04-19 05:53:00,SystemResetWarning,0833.8,5.00,000.00,019.4,018.8,000.0,028.0,021.2,024.3,0000.0,0010.54,0006.54,0005.90
2024-04-19 05:54:00,SystemResetWarning,0833.8,5.00,000.00,019.4,018.8,000.0,028.0,021.2,024.3,0000.0,0010.00,0006.57,0005.93
2024-04-19 05:55:00,SystemResetWarning,0833.7,4.99,000.00,019.4,018.8,000.0,028.0,021.2,024.3,0000.0,0009.98,0006.59,0005.94
2024-04-19 05:56:00,SystemResetWarning,0833.8,5.01,000.00,019.4,018.8,000.0,028.0,021.2,024.3,0000.0,0009.94,0006.63,0005.97
2024-04-19 05:57:00,SystemResetWarning,0833.8,5.01,000.00,019.4,018.8,000.0,027.9,021.2,024.3,0000.0,0009.26,0006.63,0005.99
2024-04-19 05:58:00,SystemResetWarning,0833.8,5.00,000.00,019.4,018.8,000.0,027.9,021.2,024.3,0000.0,0009.31,0006.67,0006.02
2024-04-19 05:59:00,SystemResetWarning,0833.8,5.01,000.00,019.4,018.8,000.0,027.9,021.2,024.4,0000.0,0009.46,0006.69,0006.03
